FW8315 Weather Reports


time (UTC)temp
C
wind
direction
speed
KPH
gust
KPH
rain 1hr
cm
rain 24hr
cm
rain mn
cm
humidity
%
barometer
mb
20260504050025 5 305 11.3 17.7 0.00 0.00 0.00 82 1015.3
20260504045030 5 303 12.9 22.5 0.00 0.00 0.00 81 1015.3
20260504044018 5 309 9.7 22.5 0.00 0.00 0.00 82 1015.2
20260504043023 5 311 9.7 17.7 0.00 0.00 0.00 83 1015.2
20260504042028 4 311 8.0 16.1 0.00 0.00 0.00 83 1014.9
20260504041016 3 308 8.0 14.5 0.00 0.00 0.00 85 1015.0
20260504040021 3 301 8.0 14.5 0.00 0.00 0.00 85 1014.9
20260504035026 3 302 6.4 16.1 0.00 0.00 0.00 84 1015.0
20260504034031 3 298 6.4 12.9 0.00 0.00 0.00 84 1014.9
20260504033019 3 300 4.8 9.7 0.00 0.00 0.00 84 1015.0
20260504032024 3 300 6.4 12.9 0.00 0.00 0.00 84 1014.8
20260504031029 3 299 6.4 11.3 0.00 0.00 0.00 83 1014.9
20260504030017 3 302 6.4 12.9 0.00 0.00 0.00 83 1014.9
20260504025022 3 297 6.4 11.3 0.00 0.00 0.00 83 1014.9
20260504024027 3 302 4.8 9.7 0.00 0.00 0.00 83 1014.9
20260504023032 3 304 6.4 12.9 0.00 0.00 0.00 83 1014.8
20260504022020 3 292 6.4 11.3 0.00 0.00 0.00 83 1015.0
20260504021025 3 288 4.8 11.3 0.00 0.00 0.00 83 1015.1
20260504020029 3 290 6.4 12.9 0.00 0.00 0.00 82 1015.1
20260504015018 3 296 6.4 12.9 0.00 0.00 0.00 82 1015.3
20260504014023 3 307 6.4 11.3 0.00 0.00 0.00 81 1015.3
20260504013028 3 302 6.4 11.3 0.00 0.00 0.00 81 1015.5
20260504012015 3 300 6.4 12.9 0.00 0.00 0.00 82 1015.5
20260504011020 3 300 4.8 9.7 0.00 0.00 0.00 82 1015.7
20260504010025 3 296 3.2 6.4 0.00 0.00 0.00 82 1015.7
20260504005030 3 302 1.6 4.8 0.00 0.00 0.00 81 1015.8
20260504004018 3 302 0.0 3.2 0.00 0.00 0.00 80 1015.8
20260504003023 3 302 3.2 4.8 0.00 0.00 0.00 79 1015.9
20260504002028 3 302 1.6 6.4 0.00 0.00 0.00 79 1016.1
20260504001016 3 303 3.2 9.7 0.00 0.00 0.00 78 1016.1
20260504000021 3 305 1.6 6.4 0.00 0.00 0.00 78 1016.2
20260503235026 3 303 4.8 6.4 0.00 0.00 0.00 78 1016.2
20260503234031 3 307 1.6 6.4 0.00 0.00 0.00 79 1016.2
20260503233019 3 309 3.2 6.4 0.00 0.00 0.00 79 1016.3
20260503232024 3 305 4.8 12.9 0.00 0.00 0.00 79 1016.4
20260503231029 3 308 3.2 6.4 0.00 0.00 0.00 79 1016.5
20260503230017 3 304 4.8 9.7 0.00 0.00 0.00 80 1016.7
20260503225022 3 305 4.8 6.4 0.00 0.00 0.00 80 1016.8
20260503224027 3 305 3.2 6.4 0.00 0.00 0.00 80 1016.8
20260503223032 3 305 1.6 4.8 0.00 0.00 0.00 81 1016.8
20260503222020 3 305 1.6 6.4 0.00 0.00 0.00 80 1016.7
20260503221025 3 319 4.8 6.4 0.00 0.00 0.00 81 1016.7
20260503220030 3 27 0.0 4.8 0.00 0.00 0.00 82 1016.8
20260503215018 3 28 1.6 4.8 0.00 0.00 0.00 82 1016.8
20260503214023 3 28 0.0 0.0 0.00 0.00 0.00 81 1016.8
20260503213028 3 28 0.0 0.0 0.00 0.00 0.00 81 1016.9
20260503212016 3 28 0.0 0.0 0.00 0.00 0.00 80 1016.8
20260503211021 3 28 0.0 0.0 0.00 0.00 0.00 80 1016.9
20260503210026 3 28 0.0 0.0 0.00 0.00 0.00 81 1016.8
20260503205031 3 28 1.6 4.8 0.00 0.00 0.00 81 1017.0
20260503204019 3 28 1.6 4.8 0.00 0.00 0.00 80 1017.1
20260503203023 3 28 1.6 3.2 0.00 0.00 0.00 79 1017.2
20260503202028 4 28 0.0 0.0 0.00 0.00 0.00 79 1017.1
20260503201037 4 28 0.0 0.0 0.00 0.00 0.00 79 1017.3
20260503192024 5 51 0.0 0.0 0.00 0.00 0.00 76 1017.8
20260503191029 5 51 0.0 0.0 0.00 0.00 0.00 76 1018.0
20260503190017 5 51 0.0 0.0 0.00 0.00 0.00 75 1018.1
20260503185022 5 51 0.0 0.0 0.00 0.00 0.00 74 1018.2
20260503184048 6 51 0.0 0.0 0.00 0.00 0.00 73 1018.2
20260503175018 7 51 0.0 0.0 0.00 0.00 0.00 68 1018.1
20260503174023 7 51 0.0 4.8 0.00 0.00 0.00 67 1018.2
20260503173028 7 46 4.8 6.4 0.00 0.00 0.00 67 1018.2
20260503172016 8 47 4.8 9.7 0.00 0.00 0.00 66 1018.1
20260503171021 8 42 4.8 9.7 0.00 0.00 0.00 64 1018.0
20260503131022 13 44 16.1 29.0 0.00 0.00 0.00 49 1018.6
20260503081017 10 29 14.5 27.4 0.00 0.00 0.00 70 1020.5
20260503072025 10 18 12.9 25.7 0.00 0.00 0.00 75 1020.4
20260503071030 10 19 11.3 27.4 0.00 0.00 0.00 75 1020.3
20260503055021 8 12 12.9 27.4 0.00 0.00 0.00 79 1020.1
20260503054024 8 10 9.7 17.7 0.00 0.00 0.00 79 1020.1
20260503053029 8 350 11.3 20.9 0.00 0.00 0.00 78 1020.0
20260503052017 8 4 11.3 20.9 0.00 0.00 0.00 79 1019.9